SCP
0 0 0 0 0 0 0 0 0 0 0 0 0 0 0 0 0 0 0 0 0 0 0 0 0 0 0 0 0 0 0 0 0 0 0 0 0 0 0 0 0 0 0 0
0 0 0 0 0 0 0 0 0 0 0 0 0 0 0 0 0 0 0 0 0 0 0 0 0 0 0 0 0 0 0 0 0 0 0 0 0 0 0 0 0 0 0 0
0 0 0 0 0 0 0 0 0 0 0 0 0 0 0 0 0 0 0 0 0 0 0 0 0 0 0 0 0 0 0 0 0 0 0 0 0 0 0 0 0 0 0 0
0 0 0 0 0 0 0 0 0 0 0 0 0 0 0 0 0 0 0 0 0 0 0 0 0 0 0 0 0 0 0 0 0 0 0 0 0 0 0 0 0 0 0 0
0 0 0 0 0 0 0 0 0 0 0 0 0 0 0 0 0 0 0 0 0 0 0 0 0 0 0 0 0 0 0 0 0 0 0 0 0 0 0 0 0 0 0 0
0 0 0 0 0 0 0 0 0 0 0 0 0 0 0 0 0 0 0 0 0 0 0 0 0 0 0 0 0 0 0 0 0 0 0 0 0 0 0 0 0 0 0 0
0 0 0 0 0 0 0 0 0 0 0 0 0 0 0 0 0 0 0 0 0 0 0 0 0 0 0 0 0 0 0 0 0 0 0 0 0 0 0 0 0 0 0 0
0 0 0 0 0 0 0 0 0 0 0 0 0 0 0 0 0 0 0 0 0 0 0 0 0 0 0 0 0 0 0 0 0 0 0 0 0 0 0 0 0 0 0 0
0 0 0 0 0 0 0 0 0 0 0 0 0 0 0 0 0 0 0 0 0 0 0 0 0 0 0 0 0 0 0 0 0 0 0 0 0 0 0 0 0 0 0 0
0 0 0 0 0 0 0 0 0 0 0 0 0 0 0 0 0 0 0 0 0 0 0 0 0 0 0 0 0 0 0 0 0 0 0 0 0 0 0 0 0 0 0 0
0 0 0 0 0 0 0 0 0 0 0 0 0 0 0 0 0 0 0 0 0 0 0 0 0 0 0 0 0 0 0 0 0 0 0 0 0 0 0 0 0 0 0 0
0 0 0 0 0 0 0 0 0 0 0 0 0 0 0 0 0 0 0 0 0 0 0 0 0 0 0 0 0 0 0 0 0 0 0 0 0 0 0 0 0 0 0 0
0 0 0 0 0 0 0 0 0 0 0 0 0 0 0 0 0 0 0 0 0 0 0 0 0 0 0 0 0 0 0 0 0 0 0 0 0 0 0 0 0 0 0 0
0 0 0 0 0 0 0 0 0 0 0 0 0 0 0 0 0 0 0 0 0 -0 0 0 0 0 0 0 0 0 0 0 0 0 0 0 0 0 0 0 0 0 0 0
0 0 0 0 0 0 0 0 0 0 0 0 0 0 0 0 0 0 0 -0 -0 -0 -0 0 0 0 0 0 0 0 0 0 0 0 0 0 0 0 0 0 0 0 0 0
0 0 0 0 0 0 0 0 0 0 0 0 0 0 0 0 0 0 0 0 -0 -0 -0 0 0 0 0 0 0 0 0 0 0 0 0 0 0 0 0 0 0 0 0 0
0 0 0 0 0 0 0 0 0 0 0 0 0 0 0 0 0 0 0 0 0 0 0 0 0 0 0 0 0 0 0 0 0 0 0 0 0 0 0 0 0 0 0 0
0 0 0 0 0 0 0 0 0 0 0 0 0 0 0 0 0 0 0 0 0 0 0 0 0 0 0 0 0 0 0 0 0 0 0 0 0 0 0 0 0 0 0 0
0 0 0 0 0 0 0 0 0 0 0 0 0 0 0 0 0 0 0 0 0 0 0 0 0 0 0 0 0 0 0 0 0 0 0 0 0 0 0 0 0 0 0 0
0 0 0 0 0 0 0 0 0 0 0 0 0 0 0 0 0 0 0 0 0 0 0 0 0 0 0 0 0 0 0 0 0 0 0 0 0 0 0 0 0 0 0 0
0 0 0 0 0 0 0 0 0 0 0 0 0 0 0 0 0 0 0 0 0 0 0 0 0 0 0 0 0 0 0 0 0 0 0 0 0 0 0 0 0 0 0 0
0 0 0 0 0 0 0 0 0 0 0 0 0 0 0 0 0 0 0 0 0 0 0 0 0 0 0 0 0 0 0 0 0 0 0 0 0 0 0 0 0 0 0 0
0 0 0 0 0 0 0 0 0 0 0 0 0 0 0 0 0 0 0 0 0 0 0 0 0 0 0 0 0 0 0 0 0 0 0 0 0 0 0 0 0 0 0 0
0 0 0 0 0 0 0 0 0 0 0 0 0 0 0 0 0 0 0 0 0 0 0 0 0 0 0 0 0 0 0 0 0 0 0 0 0 0 0 0 0 0 0 0
0 0 0 0 0 0 0 0 0 0 0 0 0 0 0 0 0 0 0 0 0 0 0 0 0 0 0 0 0 0 0 0 0 0 0 0 0 0 0 0 0 0 0 0
0 0 0 0 0 0 0 0 0 0 0 0 0 0 0 0 0 0 0 0 0 0 0 0 0 0 0 0 0 0 0 0 0 0 0 0 0 0 0 0 0 0 0 0
Wind_Speed
2 3 3 6 6 3 2 2 4 4 2 2 6 11 12 7 5 7 7 6 6 8 7 3 3 3 3 3 4 5 5 5 4 3 3 3 3 2 2 2 2 3 3 4
2 4 5 2 2 2 2 3 4 4 1 2 6 11 10 7 7 7 7 8 7 6 5 3 3 3 4 5 5 6 6 6 5 4 3 2 2 2 2 2 2 3 3 4
5 2 2 3 2 3 4 5 5 4 4 2 4 10 6 4 3 5 6 6 6 6 6 5 4 4 4 5 6 6 6 6 5 4 3 2 1 1 1 1 2 2 3 3
3 2 1 2 3 4 5 4 4 2 1 4 1 7 8 4 6 6 6 5 6 5 5 4 4 4 5 6 5 5 5 6 5 5 5 5 4 3 3 2 2 2 3 3
3 1 2 3 4 5 4 1 2 1 2 3 1 4 11 2 6 7 5 4 5 4 4 4 4 5 5 4 4 4 5 5 5 5 6 5 4 3 2 2 2 3 3 3
2 1 2 3 1 3 2 3 2 2 2 4 5 5 10 5 7 5 4 4 4 3 3 3 3 2 2 2 2 3 4 4 4 5 5 6 5 4 3 2 3 2 2 2
3 2 1 1 2 1 2 4 2 4 2 7 3 5 12 8 5 5 6 5 4 3 2 2 2 2 2 2 2 3 3 3 4 5 5 6 6 5 5 5 4 3 2 2
2 5 4 3 4 4 4 5 6 5 5 5 2 8 10 5 4 3 4 3 3 3 2 2 3 2 2 3 3 3 4 3 3 4 5 5 5 4 4 4 3 4 3 3
5 5 0 1 1 4 4 4 3 3 0 3 6 7 10 3 3 2 2 2 3 3 3 2 2 2 2 3 3 4 4 3 4 4 4 4 4 4 4 4 3 3 2 2
4 3 2 1 1 1 2 4 4 4 2 5 6 6 6 5 4 2 2 2 3 3 3 2 2 2 2 2 2 2 3 4 4 4 4 3 4 4 4 3 4 3 3 2
2 3 2 1 5 6 4 3 3 3 3 4 5 8 6 6 4 3 3 3 3 2 2 2 2 2 1 1 1 2 2 2 3 3 3 3 3 3 3 3 4 4 3 3
3 3 3 5 2 1 4 5 6 4 5 4 4 10 3 4 3 3 4 3 2 2 2 2 2 1 1 1 1 1 2 2 3 3 3 3 3 3 3 3 3 3 4 3
5 4 0 3 2 1 3 4 4 3 3 4 6 11 2 1 2 2 3 3 2 2 2 2 2 2 2 2 1 2 2 3 2 2 3 3 3 3 3 3 3 3 3 3
3 4 7 9 5 4 5 5 5 5 5 7 11 12 9 7 6 5 3 3 3 2 2 2 2 2 2 2 2 2 2 2 2 2 3 3 3 3 3 3 3 3 3 3
3 5 5 7 4 4 7 8 9 11 11 11 12 13 14 10 7 5 4 3 3 3 3 3 3 3 2 2 2 2 2 2 2 2 3 3 3 2 2 2 2 2 3 3
3 3 2 5 4 5 9 11 12 14 12 13 13 17 10 6 4 5 5 4 4 5 5 4 3 3 3 3 3 3 3 2 2 3 3 2 2 2 2 2 2 2 3 3
4 4 2 5 3 3 11 12 13 10 10 10 15 15 5 5 7 6 5 4 5 5 5 4 4 4 4 3 3 4 3 2 2 2 2 2 2 2 3 3 3 3 3 3
6 4 3 2 1 10 10 3 9 10 10 10 9 8 7 8 6 4 4 5 5 5 5 4 4 4 3 3 2 2 2 1 2 2 2 2 2 3 2 2 3 3 3 3
6 7 4 3 5 12 10 4 6 7 9 9 12 11 7 5 3 5 4 4 5 5 4 4 3 3 2 2 2 1 1 1 1 2 3 3 3 3 3 3 3 3 3 3
3 4 5 4 5 10 8 2 3 3 7 5 8 9 6 2 3 6 2 2 3 2 2 2 2 2 2 2 1 1 1 1 3 3 3 3 3 3 4 4 3 3 3 3
4 4 7 7 8 11 7 2 4 5 7 2 4 5 5 6 7 4 2 2 2 2 2 1 2 2 2 1 0 1 2 3 4 3 2 2 2 3 3 3 2 2 2 2
9 8 8 6 7 12 3 5 7 6 2 1 2 3 4 5 4 3 2 2 2 2 2 2 2 3 2 1 0 2 3 3 2 2 2 2 2 2 2 2 2 2 2 2
8 9 7 10 10 4 5 7 5 2 3 3 3 3 3 3 4 4 3 3 3 2 2 2 1 3 2 1 1 2 3 2 1 1 2 2 2 1 1 2 2 1 2 2
5 3 4 6 9 7 7 6 5 5 5 5 4 3 3 4 4 4 4 3 3 3 2 2 2 2 3 2 2 2 2 1 1 1 2 1 1 1 1 1 1 2 2 3
7 5 5 8 9 7 7 7 7 6 5 5 4 4 4 4 4 4 4 4 3 3 2 2 2 3 3 3 2 2 1 1 1 1 1 1 1 1 1 1 2 3 3 3
7 8 8 10 7 6 7 4 4 5 6 5 5 5 4 4 5 4 4 3 3 3 2 2 2 3 3 2 2 2 2 1 1 1 1 1 1 1 1 1 2 4 4 5
Wind_Direction
53 84 205 216 205 192 177 211 254 259 278 268 261 271 279 283 269 261 258 255 257 259 264 261 236 220 205 201 193 192 190 189 178 175 180 187 205 205 197 198 200 195 185 176
65 246 237 192 181 202 218 250 269 287 300 246 283 279 273 259 251 250 252 252 252 260 274 265 240 214 206 206 201 194 194 188 186 188 185 180 181 198 197 194 197 198 192 184
188 237 191 153 165 198 228 220 236 265 326 319 317 296 270 269 256 262 254 252 254 246 250 253 243 224 214 210 205 201 199 193 188 175 156 131 122 98 171 201 207 206 196 188
236 262 130 152 199 190 247 220 211 234 295 295 356 294 284 266 283 266 259 258 258 257 252 254 245 235 223 218 208 202 194 191 187 173 167 169 183 197 203 199 202 201 191 188
239 196 170 206 221 182 217 142 166 198 204 288 243 248 281 292 275 269 264 261 263 259 246 248 241 234 229 214 202 198 190 189 181 174 176 181 193 200 179 163 176 192 194 192
247 222 192 208 203 174 156 82 72 62 84 273 221 206 274 243 234 264 275 272 272 274 261 256 257 250 236 210 192 186 180 184 177 178 181 188 192 183 163 175 185 193 196 192
288 251 225 142 98 73 113 100 22 345 331 252 207 215 252 251 241 239 261 272 279 284 281 277 271 241 224 206 190 179 171 183 181 181 188 194 196 189 188 191 193 191 194 203
217 266 215 188 180 179 190 159 168 211 239 277 235 235 254 258 266 255 256 271 302 299 291 280 263 242 223 209 196 185 182 187 184 188 197 195 194 195 198 194 191 197 201 205
191 247 327 200 211 153 161 199 179 138 49 287 265 274 294 278 298 292 299 313 299 292 290 284 283 266 241 218 206 196 190 190 190 192 195 198 198 196 196 189 189 199 203 189
173 233 270 283 93 344 175 152 125 150 202 263 279 260 250 257 258 284 309 299 293 303 306 308 299 274 259 236 221 199 194 197 195 190 196 201 205 204 196 184 190 195 193 179
162 185 276 211 200 192 157 167 167 160 180 194 263 266 226 217 226 245 260 262 263 274 292 303 306 289 273 274 204 202 204 196 193 194 198 197 201 201 195 195 197 193 186 179
171 151 244 241 230 199 190 188 166 181 228 214 238 266 259 214 239 246 263 266 267 274 290 306 313 319 306 275 257 226 221 214 212 199 192 199 198 189 195 202 200 188 185 186
156 146 318 321 301 230 228 215 200 178 164 197 220 262 291 322 297 267 262 275 283 295 310 325 329 318 289 268 263 250 239 233 224 197 192 198 198 194 202 205 196 188 186 186
150 176 197 218 229 190 221 219 196 180 205 227 233 256 282 290 295 303 298 278 279 282 286 296 300 300 294 281 268 254 249 235 217 200 199 207 210 208 207 202 193 191 187 188
160 221 233 252 256 226 234 226 209 214 220 226 247 251 262 268 269 278 280 274 273 281 282 276 278 284 291 291 286 274 262 243 212 202 210 220 218 209 197 193 193 187 189 196
167 210 224 270 253 249 261 241 223 230 234 240 260 268 264 266 270 272 265 256 263 271 271 270 271 274 273 270 272 273 268 262 222 211 223 224 209 206 204 204 197 191 198 201
179 169 194 263 288 324 264 227 208 216 215 209 234 249 265 269 260 255 256 253 255 265 267 267 268 263 262 261 259 256 258 254 230 230 234 224 208 213 216 207 199 202 206 205
179 174 188 252 19 244 250 196 196 217 234 219 236 252 244 249 260 260 248 250 261 265 265 269 272 273 275 272 271 269 255 232 229 239 246 239 215 221 221 210 213 217 210 208
190 178 178 189 243 271 286 238 186 202 254 224 231 247 254 263 298 280 250 238 246 254 259 263 270 272 275 274 277 267 252 236 235 250 257 252 229 222 215 220 228 227 218 219
187 179 177 188 219 245 255 230 199 156 267 235 213 235 241 196 247 267 275 261 271 278 279 284 293 292 282 291 311 250 262 255 252 257 259 254 238 226 221 226 232 232 225 226
176 191 204 211 232 257 258 213 136 185 252 269 211 226 210 209 231 263 301 304 288 290 291 301 303 296 288 300 298 252 262 258 270 280 275 260 241 235 230 227 228 225 222 223
184 185 198 187 220 251 223 146 186 222 278 269 243 233 223 239 268 278 283 292 305 314 316 318 315 308 317 325 217 257 267 282 297 284 264 255 248 237 224 213 222 217 208 216
208 199 192 198 219 237 183 203 223 227 254 260 254 257 231 241 259 270 276 284 290 286 292 301 293 302 316 322 253 253 286 310 304 286 269 265 256 244 224 206 207 210 212 220
245 223 209 246 258 254 244 242 247 238 242 253 250 253 230 240 253 263 268 274 282 284 285 294 290 290 299 310 299 276 301 313 261 259 271 262 245 265 275 247 213 207 212 222
221 190 216 251 270 286 265 240 244 251 251 252 252 243 234 234 252 256 261 265 268 281 292 279 268 275 290 309 306 310 317 308 261 259 257 263 256 245 246 250 238 227 230 223
208 196 203 237 234 231 257 252 242 244 250 249 252 261 253 233 244 253 257 259 265 278 288 287 282 283 295 308 307 318 324 288 240 257 258 248 249 250 239 250 298 274 255 257